Location: ?ejeti?ky
(50.4060°N, 14.9016°E)
Time: 21:51:33
(UTC+00:00)

STARLINK-1364 - Pass Details

Date: 05 October 2020
Orbit: 548 x 551 km, 53.0° (Epoch: 23 October)

Event Time Altitude Azimuth Distance (km) Brightness Sun altitude
Exits shadow 03:04:21 44° 306° (NW) 764 4.0 -20.2°
Maximum altitude 03:05:28 67° 11° (N) 601 3.8 -20.0°
Drops below altitude 10° 03:09:37 10° 95° (E) 1,827 7.3 -19.4°
Sets 03:11:52 0° 98° (E) 2,721 8.4 -19.0°
